Weather History for Frederick, OK

Change the Weather History Date:

Monday, October 7, 2013

  Actual Average (KLTS) Record (KLTS)
Temperature  
Mean Temperature 68 °F -  
Max Temperature 82 °F 77 °F 97 °F (2014)
Min Temperature 53 °F 55 °F 39 °F (2012)
Cooling Degree Days 2    
Growing Degree Days 18 (Base 50)    
Moisture  
Dew Point 37 °F    
Average Humidity 36    
Maximum Humidity 59    
Minimum Humidity 18    
Precipitation  
Precipitation 0.00 in - - ()
Sea Level Pressure  
Sea Level Pressure 30.07 in    
Wind  
Wind Speed 6 mph (NNE)    
Max Wind Speed 10 mph    
Max Gust Speed -    
Visibility 10 miles    
Events      
Averages and records for this station are not official NWS values.
T = Trace of Precipitation, MM = Missing Value Source: NWS Daily Summary

Daily Weather History Graph

Daily Weather History Graph

Search for Another Location

Airport:

Trip Planner

Search our weather history database for the weather conditions in past years. The results will help you decide how hot, cold, wet, or windy it might be!

Date:

Astronomy

Oct. 07, 2013 Rise Set
Actual Time 7:35 AM CDT 7:11 PM CDT
Civil Twilight 7:10 AM CDT 7:36 PM CDT
Nautical Twilight 6:41 AM CDT 8:05 PM CDT
Astronomical Twilight 6:11 AM CDT 8:34 PM CDT
Moon 10:18 AM CDT (10/7) 9:06 PM CDT (10/7)
Length of Visible Light 12h 26m
Length of Day
11h 36m
Waxing Crescent, 9% of the Moon is Illuminated
Oct 7
Waxing Crescent
Oct 11
First Quarter
Oct 18
Full
Oct 26
Last Quarter
Nov 3
New

Hourly Weather History & Observations

Time (CDT) Temp. Dew Point Humidity Pressure Visibility Wind Dir Wind Speed Gust Speed Precip Events Conditions
12:53 AM 57.9 °F 35.1 °F 42% 30.06 in 10.0 mi West 4.6 mph - N/A   Clear
1:53 AM 59.0 °F 35.1 °F 41% 30.07 in 9.0 mi WNW 5.8 mph - N/A   Clear
2:53 AM 59.0 °F 35.1 °F 41% 30.07 in 10.0 mi WNW 8.1 mph - N/A   Clear
3:53 AM 54.0 °F 37.9 °F 55% 30.08 in 10.0 mi NNE 8.1 mph - N/A   Clear
4:53 AM 54.0 °F 39.0 °F 57% 30.08 in 10.0 mi North 8.1 mph - N/A   Clear
5:53 AM 53.1 °F 39.0 °F 59% 30.08 in 10.0 mi NW 4.6 mph - N/A   Clear
6:53 AM 54.0 °F 37.0 °F 53% 30.09 in 10.0 mi North 4.6 mph - N/A   Clear
7:53 AM 55.9 °F 37.9 °F 51% 30.10 in 10.0 mi North 9.2 mph - N/A   Clear
8:53 AM 61.0 °F 41.0 °F 48% 30.13 in 10.0 mi North 10.4 mph - N/A   Clear
9:53 AM 68.0 °F 41.0 °F 37% 30.13 in 10.0 mi North 10.4 mph - N/A   Clear
10:53 AM 73.9 °F 39.0 °F 28% 30.13 in 10.0 mi NNE 6.9 mph - N/A   Clear
11:53 AM 75.9 °F 33.1 °F 21% 30.12 in 10.0 mi Calm Calm - N/A   Clear
12:53 PM 79.0 °F 34.0 °F 20% 30.11 in 10.0 mi Calm Calm - N/A   Clear
1:53 PM 80.1 °F 35.1 °F 20% 30.08 in 10.0 mi Calm Calm - N/A   Clear
2:53 PM 82.0 °F 35.1 °F 18% 30.05 in 10.0 mi NE 4.6 mph - N/A   Clear
3:53 PM 82.0 °F 36.0 °F 19% 30.04 in 10.0 mi NNW 4.6 mph - N/A   Clear
4:53 PM 81.0 °F 36.0 °F 20% 30.02 in 10.0 mi Calm Calm - N/A   Clear
5:53 PM 82.0 °F 36.0 °F 19% 30.02 in 10.0 mi North 4.6 mph - N/A   Clear
6:53 PM 77.0 °F 37.0 °F 24% 30.02 in 10.0 mi ESE 6.9 mph - N/A   Clear
7:53 PM 68.0 °F 37.0 °F 32% 30.03 in 10.0 mi East 6.9 mph - N/A   Clear
8:53 PM 64.0 °F 37.9 °F 38% 30.04 in 10.0 mi East 9.2 mph - N/A   Clear
9:53 PM 63.0 °F 37.9 °F 40% 30.04 in 10.0 mi East 9.2 mph - N/A   Clear
10:53 PM 60.1 °F 37.0 °F 42% 30.04 in 10.0 mi ESE 9.2 mph - N/A   Clear
11:53 PM 57.0 °F 36.0 °F 45% 30.04 in 10.0 mi ESE 6.9 mph - N/A   Clear